Regional Weather Roundup
Issued by NWS

Home | Current Version | Previous Version | Graphics & Text | Print | Product List | Glossary Off
Versions: 1 2 3 4 5 6 7 8 9 10 11 12 13 14 15 16 17 18 19 20 21 22 23 24 25 26 27 28 29 30 31 32 33 34 35 36 37 38 39 40 41 42 43 44 45 46 47 48 49 50

000
ASUS43 KTOP 232159
RWRKS

WEATHER ROUNDUP FOR KANSAS
NATIONAL WEATHER SERVICE GOODLAND KS
500 PM CDT SUN JUL 23 2017

NOTE:  "FAIR" INDICATES FEW OR NO CLOUDS BELOW 12,000 FEET WITH NO
SIGNIFICANT WEATHER AND/OR OBSTRUCTIONS TO VISIBILITY.

KSZ001>006-013>018-027>032-041>047-232300-
NORTHWEST KANSAS

CITY           SKY/WX    TMP DP  RH WIND       PRES   REMARKS
GOODLAND       SUNNY     90  57  32 SE8G21    30.07F
HAYS             N/A     95  59  30 E12       29.96F
HILL CITY      FAIR      95  58  28 SE9       29.99F
RUSSELL        FAIR      96  59  29 E12G20    29.95F HX  95
$$

KSZ061>065-074>080-084>089-232300-
SOUTHWEST KANSAS

CITY           SKY/WX    TMP DP  RH WIND       PRES   REMARKS
DODGE CITY     FAIR      93  62  35 NE8       30.00F
ELKHART          N/A     88  58  36 E8          N/A
GARDEN CITY    FAIR      92  58  31 E12       30.02F
LIBERAL        FAIR      91  62  37 E15       30.01F
$$

KSZ066>073-081>083-090>101-232300-
SOUTHEAST KANSAS

CITY           SKY/WX    TMP DP  RH WIND       PRES   REMARKS
CHANUTE        FAIR      93  70  46 N6        29.90F HX  99
COFFEYVILLE    FAIR      93  67  42 VRB5      29.88F HX  96
HUTCHINSON     FAIR      91  64  40 E5        29.93F
MEDICINE LODGE   N/A     96  64  34 NE10      29.91F HX  98
NEWTON         FAIR      89  68  49 CALM      29.94F
PARSONS        FAIR      91  69  48 MISG      29.91F HX  96
WICHITA INTL   FAIR      93  68  43 NE10      29.91F HX  97
WICHITA JABRA  FAIR      91  70  49 E6        29.92F HX  96
WINFIELD       FAIR      95  65  37 N7        29.90F HX  97
$$

KSZ007>012-019>026-033>040-048>060-102>105-232300-
NORTHEAST KANSAS

CITY           SKY/WX    TMP DP  RH WIND       PRES   REMARKS
CONCORDIA      FAIR      95  64  35 NE8       29.93F HX  97
EMPORIA        FAIR      91  70  49 NE7       29.91F HX  96
LAWRENCE       FAIR      92  76  59 N5        29.89F HX 104
MANHATTAN      FAIR      96  65  35 N6        29.90F HX  98
OLATHE IND     FAIR      90  72  55 N6        29.91F HX  97
OLATHE EXE     PTSUNNY   90  73  57 W7        29.91S HX  98
SALINA         FAIR      97  65  34 NE8       29.92F HX  99
TOPEKA BILLARD FAIR      92  71  50 CALM      29.89F HX  98
TOPEKA FORBES  FAIR      94  72  48 NE6       29.91F HX 102
$$




USA.gov is the U.S. government's official web portal to all federal, state and local government web resources and services.